User: anonymous   Login
Location: Unspecified
(48.5670°N, 0.0000°E)
Time: 21:49:33
(UTC+00:00)
Language:

Transit 2A - Orbit

View from above orbital plane
View from above orbital plane
View from above satellite
View from above satellite

Ground track
Ground track

The orbit data is extracted from the following two-line orbital elements,

1    45U 60007A   19201.33554451 -.00000094  00000-0  36398-5 0  9993
2    45  66.6929 178.7125 0258396 199.6958 159.4023 14.33643945 74951
Epoch (UTC): 20 July 2019 08:03:11
Eccentricity: 0.0258396
inclination: 66.6929°
perigee height: 594 km
apogee height: 964 km
right ascension of ascending node: 178.7125°
argument of perigee: 199.6958°
revolutions per day: 14.33643945
mean anomaly at epoch: 159.4023°
orbit number at epoch: 7495

The dashed part of the orbit path shows where the satellite is in the earth's shadow,  

DLR